SCP
0 0 0 0 0 0 -0 -0 0 0 0 0 0 0 0 0 0 0 0 0 0 0 0 0 0 0 0 0 0 0 0 0 0 0 0 0 0 0 0 0 0 0 0 0
0 0 0 0 -0 -0 -0 0 0 0 0 0 0 0 0 0 0 0 0 0 0 0 0 0 0 0 0 0 0 0 0 0 0 0 0 0 0 0 0 0 0 0 0 0
0 0 0 0 0 0 0 0 0 0 0 0 0 0 0 0 0 0 0 0 0 0 0 0 0 0 0 0 0 0 0 0 -0 -0 0 0 0 0 0 0 0 0 0 0
0 0 0 0 0 0 0 0 0 0 0 0 0 0 0 0 0 0 0 0 0 0 0 0 0 -0 -0 -0 -0 0 0 0 0 0 0 0 0 0 0 0 0 0 0 0
0 0 0 0 0 0 0 0 0 0 0 0 0 0 0 0 0 0 0 0 0 0 0 -0 -0 -0 -0 -0 0 0 0 0 -0 -0 0 0 0 0 0 0 0 0 0 0
0 0 0 0 0 0 0 0 -0 0 0 0 0 0 0 0 0 0 0 0 -0 0 0 0 -0 -0 0 0 0 0 -0 0 0 0 0 0 0 0 0 0 0 0 0 0
0 0 0 0 -0 0 0 0 -0 0 0 0 0 0 0 0 0 0 0 0 0 0 0 0 0 0 0 0 0 0 0 0 0 0 0 0 0 0 0 0 0 0 0 0
0 0 0 -0 0 0 0 0 0 0 0 0 0 0 0 0 -0 -0 -0 -0 -0 -0 -0 -0 0 0 0 0 0 0 0 0 0 0 0 0 0 0 0 0 0 0 0 0
0 0 0 0 0 0 0 0 0 0 0 0 -0 0 0 -0 -0 -0 -0 -0 -0 -0 -0 -0 0 0 0 0 0 0 0 0 0 0 0 0 0 0 0 0 0 0 0 0
0 0 0 0 -0 0 0 0 0 0 0 0 0 0 -0 -0 -0 -0 -0 -0 -0 -0 0 0 0 0 0 0 0 0 0 0 0 0 0 0 0 0 0 0 0 0 0 0
0 0 0 0 -0 0 0 0 -0 0 -0 -0 0 -0 -0 -0 -0 -0 0 0 0 0 0 0 0 0 0 0 0 0 0 0 0 0 0 0 0 0 0 0 0 0 0 0
0 0 0 0 0 0 0 -0 0 0 -0 -0 -0 -0 -0 -0 0 0 0 0 0 0 0 0 0 0 0 0 0 0 0 0 0 0 0 0 0 0 0 0 0 0 0 0
0 0 0 -0 -0 0 -0 0 -0 -0 -0 -0 -0 -0 0 0 0 0 0 0 0 0 0 0 0 0 0 0 0 0 0 0 0 0 0 0 0 0 0 0 0 0 0 0
0 -0 -0 -0 -0 -0 -0 -0 -0 0 0 0 0 0 0 0 0 0 0 0 0 0 0 0 0 0 0 0 0 0 0 0 0 0 0 0 0 0 0 0 0 0 0 0
-0 -0 -0 -0 0 0 -0 -0 0 0 0 0 0 0 0 0 0 0 -0 -0 0 0 0 0 0 0 0 0 0 0 0 0 0 0 0 0 0 0 -0 0 0 0 0 0
0 0 0 0 0 0 0 0 0 0 0 0 0 0 0 0 0 0 0 0 0 0 0 0 0 0 0 0 0 0 0 0 -0 -0 -0 -0 -0 -0 -0 -0 -0 -0 0 0
0 0 0 0 0 0 0 0 0 0 0 0 0 0 0 0 0 0 0 -0 -0 0 0 0 0 0 0 -0 -0 -0 -0 -0 -0 -0 -0 -0 -0 -0 -0 -0 -0 -0 0 0
0 0 0 0 0 0 0 0 0 0 0 -0 0 0 0 0 -0 -0 -0 -0 -0 0 0 0 0 0 0 0 -0 -0 -0 -0 -0 -0 -0 -0 -0 -0 -0 -0 -0 0 0 0
0 0 0 0 0 0 0 0 0 0 0 -0 0 0 0 0 0 0 0 0 0 0 0 0 0 -0 -0 -0 -0 -0 -0 -0 -0 -0 -0 -0 -0 -0 -0 0 0 0 0 0
0 0 0 0 0 0 0 0 0 0 0 0 0 0 0 0 0 0 0 0 -0 -0 -0 -0 -0 -0 -0 -0 -0 -0 -0 -0 -0 -0 -0 -0 -0 -0 0 0 0 0 0 0
0 0 0 0 0 0 0 0 0 0 0 0 0 0 0 0 0 0 0 0 0 0 -0 -0 -0 -0 -0 -0 -0 -0 -0 -0 -0 -0 -0 -0 0 0 0 0 0 0 0 0
0 0 0 0 0 0 0 0 0 0 0 0 0 0 0 0 0 -0 -0 -0 -0 -0 -0 -0 -0 -0 -0 -0 -0 -0 -0 -0 -0 0 0 0 0 -0 -0 0 0 0 0 0
0 0 0 0 0 0 0 0 0 0 0 0 0 0 0 0 0 0 0 0 0 -0 -0 -0 -0 0 0 0 0 0 -0 0 -0 -0 -0 0 0 -0 0 0 0 0 0 0
0 0 0 0 0 0 0 0 0 0 0 0 0 0 0 -0 -0 -0 -0 -0 -0 0 0 -0 0 0 0 0 -0 0 0 0 -0 -0 0 0 0 0 0 0 0 0 0 0
0 0 0 0 0 0 0 0 0 0 0 0 0 0 0 0 0 0 0 -0 -0 0 0 0 0 0 0 0 0 0 0 0 0 0 0 0 0 0 0 0 0 0 0 0
0 0 0 0 0 0 0 0 0 0 0 0 0 0 0 0 0 0 0 0 0 0 0 0 0 0 0 0 0 0 0 0 0 0 0 0 0 0 0 0 0 0 0 0
0 0 0 0 0 0 0 0 0 0 0 0 0 0 0 0 0 0 0 0 0 0 0 0 0 0 0 0 0 0 0 0 0 0 0 0 0 0 0 0 0 0 0 0
Wind_Speed_500mb
30 23 13 11 23 14 19 8 8 8 5 14 16 17 23 34 45 47 47 46 45 45 45 46 43 40 41 41 42 45 44 54 62 47 39 30 23 21 20 21 19 22 26 28
8 5 25 8 45 29 21 17 8 10 8 23 22 30 35 36 41 40 49 51 55 53 46 51 48 45 41 43 51 53 58 54 46 35 23 15 14 16 18 17 19 24 27 30
13 30 26 15 35 27 14 25 13 17 12 19 31 35 37 36 41 44 49 44 46 45 43 46 53 54 58 61 62 52 46 40 32 21 9 6 10 16 14 17 24 28 31 34
9 20 13 3 18 11 11 31 39 22 25 18 25 47 63 48 47 48 44 47 48 53 55 59 58 58 57 51 45 37 28 20 12 12 16 13 12 16 21 25 30 34 35 37
6 7 6 2 20 16 13 15 39 29 28 19 13 40 56 55 49 51 50 52 52 61 54 55 50 47 43 38 27 17 9 7 14 19 18 18 19 22 28 34 37 39 42 46
7 7 10 8 41 45 7 19 42 46 34 22 15 27 11 52 57 62 63 59 56 51 47 44 37 33 27 20 10 4 11 14 13 12 15 18 24 30 35 41 43 45 46 46
8 5 5 20 55 37 9 11 54 46 39 46 24 20 28 57 63 61 59 55 47 45 42 36 29 20 13 5 3 8 8 10 13 15 19 24 29 33 38 44 45 45 49 50
8 9 11 69 26 16 15 31 29 35 37 47 52 61 68 71 69 62 58 49 41 38 36 30 22 15 13 10 11 10 10 12 14 15 20 23 27 31 37 42 47 49 54 55
9 3 15 35 23 32 25 18 35 36 42 54 64 67 70 72 71 67 63 58 51 47 43 40 33 28 22 23 20 18 19 19 20 21 23 27 30 35 38 42 46 50 56 62
3 6 19 41 44 39 44 50 42 44 48 55 62 60 64 64 63 60 56 54 47 42 42 41 37 32 29 24 21 20 20 21 23 26 30 34 38 42 44 46 50 53 54 56
3 7 12 40 43 37 41 39 41 43 48 51 50 55 56 59 58 56 54 50 45 45 42 40 35 32 30 30 29 29 31 31 32 35 37 37 35 37 37 36 42 45 47 52
3 14 5 14 19 24 29 34 35 37 41 44 47 52 51 57 53 49 46 42 42 41 37 39 36 36 35 36 36 36 35 34 35 35 34 36 39 35 37 39 41 47 51 57
5 8 3 11 22 24 31 34 37 38 42 45 47 46 46 48 45 41 39 37 38 39 36 33 32 33 33 33 34 35 35 36 37 38 41 44 49 55 57 50 57 57 63 67
4 2 5 6 9 23 29 34 37 43 44 43 40 39 39 40 35 37 41 42 38 34 33 35 34 35 37 37 37 37 36 39 43 49 54 58 60 64 68 72 75 74 66 73
4 4 18 16 18 21 24 25 30 37 37 36 34 33 33 36 41 42 39 36 34 33 35 36 37 39 40 41 43 46 48 50 53 56 59 62 66 69 72 75 78 81 84 77
12 19 19 19 22 24 24 26 30 34 32 33 33 36 39 39 37 33 30 28 29 42 43 42 43 47 48 48 50 51 55 59 63 65 68 70 73 75 77 79 81 83 83 84
24 21 19 19 21 23 23 26 27 28 28 27 32 32 27 26 29 31 36 41 41 40 43 45 50 50 53 56 59 62 64 65 67 69 71 73 75 77 78 80 82 83 83 81
16 22 23 25 24 21 23 23 24 23 25 31 30 26 28 28 38 36 36 34 33 34 43 50 53 54 55 56 59 62 65 68 71 74 76 77 78 80 82 83 84 86 87 85
26 25 26 24 21 16 19 21 22 26 26 25 21 29 32 32 32 32 33 31 37 43 51 52 53 53 56 61 66 69 71 72 74 75 78 81 82 82 84 85 86 87 88 89
26 25 22 17 17 17 18 21 22 18 23 24 26 25 28 31 33 34 37 43 48 50 49 51 53 56 61 64 67 68 70 73 76 77 78 81 84 87 88 88 89 91 91 90
30 26 21 17 17 19 18 21 17 17 23 21 22 29 33 33 32 31 32 40 45 46 50 54 57 59 60 62 64 68 71 74 78 82 84 84 85 85 86 87 88 89 89 88
25 20 18 17 15 15 17 17 16 19 20 23 28 29 26 29 32 36 41 45 46 46 48 49 53 57 60 63 65 67 70 72 74 77 80 82 84 87 88 88 88 87 86 84
20 16 14 14 12 12 14 15 16 18 18 20 23 26 29 33 33 35 40 43 42 44 45 49 54 57 58 59 62 65 68 70 73 75 78 81 83 83 84 84 84 83 82 81
18 18 13 12 11 13 10 13 15 18 22 24 25 28 31 34 35 40 40 37 38 41 44 49 50 52 55 58 62 66 69 72 75 77 79 81 82 83 82 82 82 80 78 75
20 17 14 13 12 10 10 14 17 17 19 21 25 28 30 31 30 32 31 32 35 37 40 45 49 53 56 59 62 66 70 72 76 78 81 83 85 86 85 83 81 78 75 72
18 15 14 14 11 12 14 16 11 15 17 18 20 22 24 26 27 28 29 33 36 40 42 45 48 51 56 60 64 68 72 74 77 80 84 87 91 93 92 86 80 75 72 69
19 17 16 16 17 16 16 15 14 14 14 15 17 19 19 20 21 25 29 32 33 37 41 45 50 55 61 67 72 74 76 78 81 84 87 91 91 91 88 82 73 69 66 64
Wind_Direction_500mb
291 274 314 330 326 33 57 358 37 322 359 338 25 56 65 86 97 105 115 129 133 132 132 140 135 126 150 140 139 143 140 139 134 135 150 165 168 188 221 215 220 231 240 247
277 310 340 344 17 14 51 18 356 331 46 7 61 73 70 77 88 96 109 119 130 127 146 129 130 127 125 126 128 129 132 136 142 153 166 183 197 216 210 233 246 250 256 260
303 331 317 27 355 17 50 27 338 19 355 36 45 44 41 64 79 89 96 109 116 126 122 122 120 121 121 123 124 136 142 146 155 172 229 249 215 205 234 263 266 268 272 275
299 324 42 132 5 2 359 39 17 21 22 50 64 57 46 57 74 81 92 101 108 110 114 118 120 120 122 124 130 138 143 149 177 277 288 273 241 235 258 271 276 277 276 278
357 303 285 67 6 343 353 7 14 1 2 350 350 71 38 62 78 89 97 100 103 104 110 113 117 120 118 120 125 130 147 236 270 267 255 245 240 256 268 275 283 287 281 279
340 352 8 323 329 330 239 35 357 350 6 26 45 65 20 59 85 88 92 95 98 103 105 108 115 113 115 125 145 200 273 282 293 294 283 268 269 275 284 287 287 283 285 287
332 342 330 351 330 323 51 331 331 345 18 51 64 67 75 87 88 91 95 98 106 112 113 112 113 120 128 153 284 306 308 304 298 288 278 279 281 284 287 290 290 288 287 288
330 5 355 357 354 46 315 324 350 34 44 63 76 80 83 88 92 93 95 99 98 99 96 96 99 99 92 65 36 13 354 347 337 321 310 304 301 298 294 294 295 297 296 296
9 10 306 354 348 4 21 23 40 62 77 85 83 80 81 82 83 85 85 85 84 85 89 86 82 77 69 59 44 26 11 358 344 328 316 308 305 303 304 304 304 306 307 307
293 350 340 14 32 48 57 60 67 81 85 86 86 83 82 81 80 81 79 76 74 73 72 71 63 55 50 41 27 12 356 345 338 335 330 325 322 318 317 316 312 311 311 312
329 347 344 19 30 44 67 75 77 79 80 81 82 81 81 79 76 76 76 74 69 64 59 55 47 37 28 18 10 357 349 342 336 331 327 323 323 322 323 325 322 322 320 319
353 316 352 7 20 60 72 72 76 80 80 77 79 80 80 77 72 70 68 61 54 48 43 37 26 19 12 4 357 354 351 349 348 345 341 337 333 329 329 327 325 322 320 318
239 309 41 51 63 72 79 80 81 83 81 82 81 77 71 67 61 57 54 48 42 36 30 26 20 13 11 7 3 0 0 358 353 347 342 338 336 333 327 319 323 323 322 320
226 171 89 92 82 74 74 79 81 81 79 76 72 67 61 57 53 46 43 40 37 33 30 28 23 20 20 15 10 5 0 354 349 346 343 338 336 333 331 330 327 321 319 319
63 102 117 102 83 86 87 94 94 83 75 69 63 58 54 51 48 47 47 45 36 30 30 26 22 21 17 11 4 357 353 349 346 343 339 338 336 334 332 331 330 328 327 324
119 131 123 125 112 108 105 92 79 70 64 57 53 49 44 43 48 52 51 45 31 32 30 23 18 17 11 5 1 356 356 355 352 348 344 342 340 338 336 335 334 333 333 333
152 144 134 121 117 117 98 79 69 61 62 62 61 57 53 51 56 53 47 41 35 29 24 20 19 14 8 5 1 359 356 353 350 348 347 347 345 344 342 339 338 337 337 336
168 151 139 125 119 105 90 79 72 72 67 64 63 67 70 61 55 52 49 39 32 27 22 21 17 13 6 2 0 359 358 357 356 354 352 349 348 345 344 342 340 337 335 334
138 133 126 122 110 97 85 79 70 62 64 63 56 53 54 55 51 42 37 25 23 21 23 19 15 9 6 6 5 2 359 356 354 352 350 349 347 346 343 341 339 338 337 336
138 132 126 125 113 101 88 83 75 74 72 62 57 62 58 53 45 37 28 25 26 25 20 16 12 8 8 5 2 358 357 356 355 354 352 351 349 347 346 343 341 339 337 336
142 133 125 113 108 98 93 87 79 72 68 64 55 52 48 47 43 39 30 27 30 24 20 14 8 6 4 4 2 1 0 359 358 356 352 349 346 344 342 340 340 339 337 335
137 136 130 115 108 102 94 84 72 67 64 58 55 56 50 42 36 31 31 31 26 18 14 7 6 8 9 6 3 1 359 357 355 353 350 347 344 342 340 337 335 334 334 334
141 133 126 115 99 91 89 90 83 75 65 60 55 51 43 42 40 34 29 26 18 13 10 10 11 9 7 4 3 2 0 358 356 353 350 346 342 338 334 332 331 332 333 334
149 142 132 125 123 106 107 103 87 74 66 63 58 51 44 38 30 26 23 18 15 13 12 11 10 7 6 5 5 3 360 357 355 352 348 344 340 336 333 331 329 330 331 332
149 147 144 123 119 124 106 84 74 66 59 52 48 43 38 34 29 28 26 24 20 15 14 13 12 11 7 4 1 359 357 354 351 348 345 343 341 338 335 332 330 329 330 331
152 146 138 137 137 122 106 97 98 83 71 58 50 43 36 29 27 27 25 20 16 15 17 16 11 7 3 1 358 356 353 351 348 347 346 345 344 341 336 333 329 328 330 331
161 159 155 152 145 131 123 120 112 102 83 64 50 41 35 34 31 26 21 18 21 21 17 12 6 2 359 357 355 351 348 347 346 345 346 345 342 339 337 335 331 328 329 331
Wind_Speed_850mb
30 23 13 11 23 14 19 8 8 8 5 14 16 17 23 34 45 47 47 46 45 45 45 46 43 40 41 41 42 45 44 54 62 47 39 30 23 21 20 21 19 22 26 28
8 5 25 8 45 29 21 17 8 10 8 23 22 30 35 36 41 40 49 51 55 53 46 51 48 45 41 43 51 53 58 54 46 35 23 15 14 16 18 17 19 24 27 30
13 30 26 15 35 27 14 25 13 17 12 19 31 35 37 36 41 44 49 44 46 45 43 46 53 54 58 61 62 52 46 40 32 21 9 6 10 16 14 17 24 28 31 34
9 20 13 3 18 11 11 31 39 22 25 18 25 47 63 48 47 48 44 47 48 53 55 59 58 58 57 51 45 37 28 20 12 12 16 13 12 16 21 25 30 34 35 37
6 7 6 2 20 16 13 15 39 29 28 19 13 40 56 55 49 51 50 52 52 61 54 55 50 47 43 38 27 17 9 7 14 19 18 18 19 22 28 34 37 39 42 46
7 7 10 8 41 45 7 19 42 46 34 22 15 27 11 52 57 62 63 59 56 51 47 44 37 33 27 20 10 4 11 14 13 12 15 18 24 30 35 41 43 45 46 46
8 5 5 20 55 37 9 11 54 46 39 46 24 20 28 57 63 61 59 55 47 45 42 36 29 20 13 5 3 8 8 10 13 15 19 24 29 33 38 44 45 45 49 50
8 9 11 69 26 16 15 31 29 35 37 47 52 61 68 71 69 62 58 49 41 38 36 30 22 15 13 10 11 10 10 12 14 15 20 23 27 31 37 42 47 49 54 55
9 3 15 35 23 32 25 18 35 36 42 54 64 67 70 72 71 67 63 58 51 47 43 40 33 28 22 23 20 18 19 19 20 21 23 27 30 35 38 42 46 50 56 62
3 6 19 41 44 39 44 50 42 44 48 55 62 60 64 64 63 60 56 54 47 42 42 41 37 32 29 24 21 20 20 21 23 26 30 34 38 42 44 46 50 53 54 56
3 7 12 40 43 37 41 39 41 43 48 51 50 55 56 59 58 56 54 50 45 45 42 40 35 32 30 30 29 29 31 31 32 35 37 37 35 37 37 36 42 45 47 52
3 14 5 14 19 24 29 34 35 37 41 44 47 52 51 57 53 49 46 42 42 41 37 39 36 36 35 36 36 36 35 34 35 35 34 36 39 35 37 39 41 47 51 57
5 8 3 11 22 24 31 34 37 38 42 45 47 46 46 48 45 41 39 37 38 39 36 33 32 33 33 33 34 35 35 36 37 38 41 44 49 55 57 50 57 57 63 67
4 2 5 6 9 23 29 34 37 43 44 43 40 39 39 40 35 37 41 42 38 34 33 35 34 35 37 37 37 37 36 39 43 49 54 58 60 64 68 72 75 74 66 73
4 4 18 16 18 21 24 25 30 37 37 36 34 33 33 36 41 42 39 36 34 33 35 36 37 39 40 41 43 46 48 50 53 56 59 62 66 69 72 75 78 81 84 77
12 19 19 19 22 24 24 26 30 34 32 33 33 36 39 39 37 33 30 28 29 42 43 42 43 47 48 48 50 51 55 59 63 65 68 70 73 75 77 79 81 83 83 84
24 21 19 19 21 23 23 26 27 28 28 27 32 32 27 26 29 31 36 41 41 40 43 45 50 50 53 56 59 62 64 65 67 69 71 73 75 77 78 80 82 83 83 81
16 22 23 25 24 21 23 23 24 23 25 31 30 26 28 28 38 36 36 34 33 34 43 50 53 54 55 56 59 62 65 68 71 74 76 77 78 80 82 83 84 86 87 85
26 25 26 24 21 16 19 21 22 26 26 25 21 29 32 32 32 32 33 31 37 43 51 52 53 53 56 61 66 69 71 72 74 75 78 81 82 82 84 85 86 87 88 89
26 25 22 17 17 17 18 21 22 18 23 24 26 25 28 31 33 34 37 43 48 50 49 51 53 56 61 64 67 68 70 73 76 77 78 81 84 87 88 88 89 91 91 90
30 26 21 17 17 19 18 21 17 17 23 21 22 29 33 33 32 31 32 40 45 46 50 54 57 59 60 62 64 68 71 74 78 82 84 84 85 85 86 87 88 89 89 88
25 20 18 17 15 15 17 17 16 19 20 23 28 29 26 29 32 36 41 45 46 46 48 49 53 57 60 63 65 67 70 72 74 77 80 82 84 87 88 88 88 87 86 84
20 16 14 14 12 12 14 15 16 18 18 20 23 26 29 33 33 35 40 43 42 44 45 49 54 57 58 59 62 65 68 70 73 75 78 81 83 83 84 84 84 83 82 81
18 18 13 12 11 13 10 13 15 18 22 24 25 28 31 34 35 40 40 37 38 41 44 49 50 52 55 58 62 66 69 72 75 77 79 81 82 83 82 82 82 80 78 75
20 17 14 13 12 10 10 14 17 17 19 21 25 28 30 31 30 32 31 32 35 37 40 45 49 53 56 59 62 66 70 72 76 78 81 83 85 86 85 83 81 78 75 72
18 15 14 14 11 12 14 16 11 15 17 18 20 22 24 26 27 28 29 33 36 40 42 45 48 51 56 60 64 68 72 74 77 80 84 87 91 93 92 86 80 75 72 69
19 17 16 16 17 16 16 15 14 14 14 15 17 19 19 20 21 25 29 32 33 37 41 45 50 55 61 67 72 74 76 78 81 84 87 91 91 91 88 82 73 69 66 64
Wind_Direction_850mb
291 274 314 330 326 33 57 358 37 322 359 338 25 56 65 86 97 105 115 129 133 132 132 140 135 126 150 140 139 143 140 139 134 135 150 165 168 188 221 215 220 231 240 247
277 310 340 344 17 14 51 18 356 331 46 7 61 73 70 77 88 96 109 119 130 127 146 129 130 127 125 126 128 129 132 136 142 153 166 183 197 216 210 233 246 250 256 260
303 331 317 27 355 17 50 27 338 19 355 36 45 44 41 64 79 89 96 109 116 126 122 122 120 121 121 123 124 136 142 146 155 172 229 249 215 205 234 263 266 268 272 275
299 324 42 132 5 2 359 39 17 21 22 50 64 57 46 57 74 81 92 101 108 110 114 118 120 120 122 124 130 138 143 149 177 277 288 273 241 235 258 271 276 277 276 278
357 303 285 67 6 343 353 7 14 1 2 350 350 71 38 62 78 89 97 100 103 104 110 113 117 120 118 120 125 130 147 236 270 267 255 245 240 256 268 275 283 287 281 279
340 352 8 323 329 330 239 35 357 350 6 26 45 65 20 59 85 88 92 95 98 103 105 108 115 113 115 125 145 200 273 282 293 294 283 268 269 275 284 287 287 283 285 287
332 342 330 351 330 323 51 331 331 345 18 51 64 67 75 87 88 91 95 98 106 112 113 112 113 120 128 153 284 306 308 304 298 288 278 279 281 284 287 290 290 288 287 288
330 5 355 357 354 46 315 324 350 34 44 63 76 80 83 88 92 93 95 99 98 99 96 96 99 99 92 65 36 13 354 347 337 321 310 304 301 298 294 294 295 297 296 296
9 10 306 354 348 4 21 23 40 62 77 85 83 80 81 82 83 85 85 85 84 85 89 86 82 77 69 59 44 26 11 358 344 328 316 308 305 303 304 304 304 306 307 307
293 350 340 14 32 48 57 60 67 81 85 86 86 83 82 81 80 81 79 76 74 73 72 71 63 55 50 41 27 12 356 345 338 335 330 325 322 318 317 316 312 311 311 312
329 347 344 19 30 44 67 75 77 79 80 81 82 81 81 79 76 76 76 74 69 64 59 55 47 37 28 18 10 357 349 342 336 331 327 323 323 322 323 325 322 322 320 319
353 316 352 7 20 60 72 72 76 80 80 77 79 80 80 77 72 70 68 61 54 48 43 37 26 19 12 4 357 354 351 349 348 345 341 337 333 329 329 327 325 322 320 318
239 309 41 51 63 72 79 80 81 83 81 82 81 77 71 67 61 57 54 48 42 36 30 26 20 13 11 7 3 0 0 358 353 347 342 338 336 333 327 319 323 323 322 320
226 171 89 92 82 74 74 79 81 81 79 76 72 67 61 57 53 46 43 40 37 33 30 28 23 20 20 15 10 5 0 354 349 346 343 338 336 333 331 330 327 321 319 319
63 102 117 102 83 86 87 94 94 83 75 69 63 58 54 51 48 47 47 45 36 30 30 26 22 21 17 11 4 357 353 349 346 343 339 338 336 334 332 331 330 328 327 324
119 131 123 125 112 108 105 92 79 70 64 57 53 49 44 43 48 52 51 45 31 32 30 23 18 17 11 5 1 356 356 355 352 348 344 342 340 338 336 335 334 333 333 333
152 144 134 121 117 117 98 79 69 61 62 62 61 57 53 51 56 53 47 41 35 29 24 20 19 14 8 5 1 359 356 353 350 348 347 347 345 344 342 339 338 337 337 336
168 151 139 125 119 105 90 79 72 72 67 64 63 67 70 61 55 52 49 39 32 27 22 21 17 13 6 2 0 359 358 357 356 354 352 349 348 345 344 342 340 337 335 334
138 133 126 122 110 97 85 79 70 62 64 63 56 53 54 55 51 42 37 25 23 21 23 19 15 9 6 6 5 2 359 356 354 352 350 349 347 346 343 341 339 338 337 336
138 132 126 125 113 101 88 83 75 74 72 62 57 62 58 53 45 37 28 25 26 25 20 16 12 8 8 5 2 358 357 356 355 354 352 351 349 347 346 343 341 339 337 336
142 133 125 113 108 98 93 87 79 72 68 64 55 52 48 47 43 39 30 27 30 24 20 14 8 6 4 4 2 1 0 359 358 356 352 349 346 344 342 340 340 339 337 335
137 136 130 115 108 102 94 84 72 67 64 58 55 56 50 42 36 31 31 31 26 18 14 7 6 8 9 6 3 1 359 357 355 353 350 347 344 342 340 337 335 334 334 334
141 133 126 115 99 91 89 90 83 75 65 60 55 51 43 42 40 34 29 26 18 13 10 10 11 9 7 4 3 2 0 358 356 353 350 346 342 338 334 332 331 332 333 334
149 142 132 125 123 106 107 103 87 74 66 63 58 51 44 38 30 26 23 18 15 13 12 11 10 7 6 5 5 3 360 357 355 352 348 344 340 336 333 331 329 330 331 332
149 147 144 123 119 124 106 84 74 66 59 52 48 43 38 34 29 28 26 24 20 15 14 13 12 11 7 4 1 359 357 354 351 348 345 343 341 338 335 332 330 329 330 331
152 146 138 137 137 122 106 97 98 83 71 58 50 43 36 29 27 27 25 20 16 15 17 16 11 7 3 1 358 356 353 351 348 347 346 345 344 341 336 333 329 328 330 331
161 159 155 152 145 131 123 120 112 102 83 64 50 41 35 34 31 26 21 18 21 21 17 12 6 2 359 357 355 351 348 347 346 345 346 345 342 339 337 335 331 328 329 331